* Astronomy

Members Login
Post Info TOPIC: Cosmos2422


L

Posts: 131433
Date:
RE: Cosmos2422
Permalink  
 


Updated re-entry time for the SL-6 platform:
1st September 2006 @ 09:51 UTC ± 7 minutes

Predicted Decay Location 46° N, 169.5° E

__________________


L

Posts: 131433
Date:
Permalink  
 

Updated re-entry time
1st September 2006 @ 10:27:00 GMT ± 48 Hours

Predicted Decay Location 62.5° S, 274.1° E

SL-6 PLAT
1 29263U 06030D 06240.88573026 .02056794 83323-5 68202-3 0 1015
2 29263 062.8501 164.6963 0084221 120.3243 240.6276 16.16540082 6144
1 29263U 06030D 06240.26669704 .01796593 82947-5 67023-3 0 1003
2 29263 062.8512 167.1767 0090803 119.7660 241.2566 16.14160154 6048
1 29263U 06030D 06240.20474492 .01767779 82915-5 66694-3 0 994
2 29263 062.8503 167.4258 0091431 119.8561 241.1734 16.13930677 6034
1 29263U 06030D 06239.95685892 +.01451044 +82822-5 +57229-3 0 01001
2 29263 062.8498 168.4149 0094527 119.9769 241.1076 16.12912141005995
1 29263U 06030D 06239.89485817 .01353299 82814-5 53821-3 0 983
2 29263 062.8486 168.6633 0095368 120.0388 241.0314 16.12673686 5987


__________________


L

Posts: 131433
Date:
Permalink  
 

A Molniya-M SL-6 Platform (3rd rocket booster stage) that was launched from the Plesetsk Cosmodrome for the Kosmos 2422 on July 21st 2006, is predicted to re-enter the Earths atmosphere on the 2nd September, 2006, at 09:00 UTC ± 2 days.

SL-6 PLAT
Expand (69kb, 600 x 360)

TLE Data

SL-6 PLAT
1 29263U 06030D 06237.40998128 .01058099 81840-5 53154-3 0 901
2 29263 062.8480 178.5513 0112953 118.9305 242.3255 16.06925917 5587


__________________


L

Posts: 131433
Date:
Permalink  
 

TLE Data

COSMOS 2422
1 29260U 06030A 06209.45884252 +.00001243 +00000-0 +24147-2 0 00051
2 29260 062.8484 312.2681 7362449 284.1728 292.4186 02.04564497000141


__________________


L

Posts: 131433
Date:
RE: Cosmos 2422
Permalink  
 


According to the Russian Space Forces, Cosmos-2422 reached its orbit at 09:16:25 (Moscow time) and was taken under control by the crews of the Main Space Systems Centre (GITsIU KS) at 09:52 (Moscow time).

Cosmos-2422 has now been deployed in an orbital plane that is between Cosmos-2388 and Cosmos-2393, two other US-KS satellites on highly-elliptical orbits.
The initial orbit of Cosmos-2422 is 62.85 degrees, orbital period is about 704 minutes. Apogee of the orbit is about 39,000 km, perigee -- 860 km.


TLE Data

COSMOS 2422
1 29260U 06030A 06207.65915291 .00000914 00000-0 25853-2 0 36
2 29260 062.8529 312.5541 7362987 284.1503 047.0755 02.04563786 110


__________________


L

Posts: 131433
Date:
RE: Cosmos2422
Permalink  
 


The US-KS/Oko spacecrafts 50cm telescope can detect heat radiation from missiles. Kosmos-2422 also carries several smaller telescopes that most likely provide a wide-angle view of the Earth in infrared and visible parts of spectrum.
Cosmos-2422 will complement two US-KS satellites currently in orbit, Cosmos-2388 and Cosmos-2393, and the geostationary Cosmos-2379 of the US-KMO early-warning constellation.

-- Edited by Blobrana at 20:40, 2006-07-22

__________________


L

Posts: 131433
Date:
Permalink  
 

The Molnia-M carrier rocket launch was conducted from the Plesetsk space centre at 8.20 a.m. Moscow time (4:20 a.m. GMT) Friday and the rocket delivered the Cosmos satellite into its designated orbit at 9.16 a.m. Moscow time (5:16 a.m. GMT).
Russian Defence Minister Sergei Ivanov said in March that the Russian orbital group consisted of 96 satellites, of which 59 are used for military purposes.
The four-stage medium-range Molnia-M, which has a lift-off weight of 305 metric tons, is believed to be one of the most reliable in the world and is used for launching spacecraft of up to two metric tons into high-elliptical orbits.
Russia has launched 220 Molnia-M carrier rockets from the Plesetsk space centre since 1970.

Source

kosmos2422

TLE Data

OBJECT C
1 29262U 06030C 06202.48580961 .00283894 32567-4 71248-3 0 33
2 29262 062.8340 312.4071 0174215 114.7025 247.2541 15.74398844 46


OBJECT D
1 29263U 06030D 06202.42359881 .00074540 75124-5 10000-3 0 35
2 29263 062.8554 312.5839 0253061 114.5194 248.2779 15.67261803 49


-- Edited by Blobrana at 15:51, 2006-07-21

__________________


L

Posts: 131433
Date:
Permalink  
 

According to the Tass news agency, Russia has successfully launched the Cosmos 2422 military satellite aboard a Molniya-M rocket, today, from the Plesetsk Cosmodrome.
This launch was the third this year, and is part Russia's space development strategy between now and 2015.

"The aim of the launch is to reinforce the military network already in space" - Alexei Zolotukhin, a spokesman for the Russian military's space division.

__________________


L

Posts: 131433
Date:
Permalink  
 

A Molniya-M rocket with 2BL upper stage is scheduled to launch the Kosmos-2422 spy satellite from the Plesetsk Cosmodrome on July 20
The launch period extends to July 31.

The US-KMO satellite will be part of an early-warning system.

__________________
Page 1 of 1  sorted by
Quick Reply

Please log in to post quick replies.



Create your own FREE Forum
Report Abuse
Powered by ActiveBoard